[[{"header":{"parameterUnit":"m.s-1","parameterCategory":1,"la1":30.2991,"la2":30.254,"lo1":-89.0895,"lo2":-89.0444,"dy":0.0017,"dx":0.0017,"nx":28,"ny":28,"refTime":"2023-10-12T03:00:00:Z","depth":0,"parameterNumber":2,"parameterNumberName":"U-component_of_WINDS"},"data":[0,0,0,0,0,0,0,0,0,0,0,0,0,0,0,0,0,0,0,0,0,0,0,0,0,0,0,0,0,0,0,0,0,0,0,0,0,0,0,0,0,0,0,0,0,0,0,0,0,0,0,0,0,0,0,0,0,0,-1.2564,-1.2564,0,-1.2556,-1.2556,-1.2556,-1.2539,-1.2539,-1.2538,-1.2538,-1.2531,-1.2531,-1.2531,0,0,0,0,0,0,0,0,0,0,0,0,0,-1.2564,-1.2564,-1.2564,-1.2564,-1.2564,-1.2556,-1.2556,-1.2556,-1.2539,-1.2539,-1.2538,-1.2538,-1.2531,-1.2531,-1.2531,0,0,0,0,0,0,0,0,0,0,0,0,0,-1.2561,-1.2564,-1.2564,-1.2554,-1.2554,-1.2556,-1.2556,-1.2556,-1.2539,-1.2539,-1.2538,-1.2538,-1.2531,-1.2531,-1.2531,-1.2543,0,0,-1.2532,-1.2532,0,0,0,0,0,0,0,0,-1.2561,-1.2561,-1.2556,-1.2555,-1.2554,-1.2548,-1.2554,-1.2552,-1.2539,-1.2545,-1.2538,-1.2538,-1.2537,-1.2537,-1.2536,-1.2542,-1.2542,-1.2532,-1.2532,-1.2532,-1.2532,0,0,0,0,0,0,0,-1.2562,-1.2561,-1.2561,-1.2556,-1.2555,-1.2551,-1.255,-1.2553,-1.2544,-1.2544,-1.2543,-1.2542,-1.2536,-1.2536,-1.2536,-1.2542,-1.2532,-1.2532,-1.2532,-1.2532,-1.2556,-1.2556,0,0,0,0,0,0,-1.2563,-1.2562,-1.2561,-1.2561,-1.2556,-1.2551,-1.255,-1.2551,-1.2544,-1.2542,-1.2543,-1.2541,-1.2536,-1.2536,-1.2536,-1.2548,-1.2532,-1.2532,-1.2532,-1.2555,-1.2556,-1.2557,0,0,0,0,0,0,-1.2563,-1.2563,-1.2562,-1.2561,-1.256,-1.2552,-1.2552,-1.2551,-1.255,-1.2543,-1.2541,-1.2544,-1.2536,-1.2536,-1.2541,-1.2548,-1.2532,-1.2532,-1.2555,-1.2556,-1.2556,-1.2573,0,0,0,0,0,0,-1.2563,-1.2563,-1.2568,-1.2561,-1.256,-1.2567,-1.2553,-1.2551,-1.2551,-1.2549,-1.2544,-1.2542,-1.2535,-1.2541,-1.2541,-1.2548,-1.2533,-1.2554,-1.2555,-1.2556,-1.2572,-1.2575,-1.2577,0,0,0,0,0,-1.2563,-1.2573,-1.2568,-1.2568,-1.2566,-1.2567,-1.2567,-1.2559,-1.2551,-1.2556,-1.255,-1.2542,-1.2547,-1.2541,-1.2542,-1.2548,-1.2554,-1.2555,-1.2556,-1.2571,-1.2574,-1.2577,0,0,0,0,0,0,-1.2582,-1.2572,-1.2566,-1.2574,-1.2572,-1.2564,-1.2569,-1.2562,-1.2562,-1.256,-1.255,-1.2549,-1.2555,-1.2552,-1.2546,-1.2559,-1.2549,-1.255,-1.256,-1.2563,-1.2565,-1.2566,-1.2533,0,0,0,0,0,-1.2586,-1.2588,-1.258,-1.2588,-1.2587,-1.2578,-1.2579,-1.2573,-1.2569,-1.2568,-1.2563,-1.2561,-1.2561,-1.2562,-1.2563,-1.2572,-1.257,-1.2576,-1.2579,-1.2581,-1.2582,-1.2585,-1.2588,-1.256,-1.256,-1.256,0,0,-1.2597,-1.2592,-1.2594,-1.2592,-1.2589,-1.2591,-1.2578,-1.2581,-1.2582,-1.2569,-1.2573,-1.257,-1.2566,-1.2573,-1.2576,-1.2571,-1.2589,-1.2582,-1.2584,-1.2584,-1.2587,-1.259,-1.2592,-1.2561,-1.2561,-1.2561,0,0,-1.2616,-1.2613,-1.2619,-1.2616,-1.2611,-1.2606,-1.2607,-1.26,-1.2597,-1.2602,-1.2591,-1.2593,-1.2595,-1.2592,-1.2591,-1.2609,-1.2601,-1.2609,-1.2621,-1.2625,-1.2627,-1.2629,-1.2634,-1.2636,-1.261,-1.261,-1.261,0,-1.2629,-1.2632,-1.2623,-1.2626,-1.2625,-1.2613,-1.2618,-1.2616,-1.2612,-1.2612,-1.2606,-1.2607,-1.2604,-1.2609,-1.2614,-1.2613,-1.2614,-1.2609,-1.2627,-1.2629,-1.2631,-1.2636,-1.2638,-1.2611,-1.2611,-1.2611,-1.2611,0,-1.2648,-1.265,-1.2655,-1.2651,-1.2651,-1.2655,-1.2646,-1.2647,-1.2641,-1.2635,-1.2639,-1.2635,-1.2634,-1.2635,-1.2629,-1.2639,-1.2636,-1.2629,-1.2619,-1.2634,-1.2639,-1.2641,-1.2613,-1.2612,-1.2612,-1.2612,0,0,-1.2679,-1.2669,-1.2671,-1.2669,-1.2663,-1.2664,-1.2667,-1.2666,-1.2666,-1.2664,-1.2666,-1.2668,-1.266,-1.2659,-1.2653,-1.2656,-1.2669,-1.2649,-1.2648,-1.2652,-1.268,-1.2685,-1.2687,-1.2664,-1.2665,-1.2665,-1.268,0,-1.2697,-1.2702,-1.2694,-1.2701,-1.2702,-1.269,-1.2693,-1.269,-1.2685,-1.2685,-1.2679,-1.268,-1.2671,-1.267,-1.2673,-1.2667,-1.2675,-1.2666,-1.2666,-1.2666,-1.2667,-1.269,-1.2695,-1.271,-1.2682,-1.2682,-1.2682,0,-1.2719,-1.2716,-1.2724,-1.2716,-1.2716,-1.2719,-1.2716,-1.2717,-1.2712,-1.2708,-1.2707,-1.2699,-1.2701,-1.2692,-1.2695,-1.2689,-1.2689,-1.2686,-1.2686,-1.2686,-1.2675,-1.2689,-1.2714,-1.2716,-1.2685,-1.2685,-1.2685,0,-1.274,-1.2739,-1.2743,-1.2741,-1.2732,-1.2735,-1.2731,-1.2726,-1.2725,-1.2723,-1.2722,-1.272,-1.2719,-1.2718,-1.271,-1.2703,-1.2713,-1.2703,-1.271,-1.271,-1.2712,-1.2712,-1.2737,-1.2713,-1.2713,-1.2713,-1.2713,0,-1.276,-1.2765,-1.2752,-1.2754,-1.2759,-1.2749,-1.2754,-1.2749,-1.2745,-1.2746,-1.2735,-1.2737,-1.2726,-1.2726,-1.2719,-1.2722,-1.2722,-1.2719,-1.2717,-1.2719,-1.272,-1.2719,-1.2717,-1.2713,-1.2713,-1.2713,-1.2713,0,-1.2784,-1.2776,-1.2779,-1.2771,-1.2768,-1.2772,-1.2765,-1.2767,-1.2761,-1.2762,-1.2762,-1.2753,-1.2752,-1.2743,-1.2741,-1.2737,-1.2742,-1.2739,-1.2744,-1.2742,-1.2749,-1.2748,-1.2773,-1.2776,-1.2751,-1.2751,-1.2751,0,-1.2798,-1.2801,-1.2792,-1.2792,-1.2789,-1.2789,-1.2788,-1.2778,-1.2777,-1.2772,-1.2774,-1.2772,-1.277,-1.277,-1.2763,-1.2761,-1.2757,-1.2766,-1.2756,-1.2758,-1.2756,-1.2756,-1.2756,-1.2768,-1.2768,-1.2768,-1.2768,0,-1.2822,-1.2817,-1.2816,-1.2813,-1.2812,-1.2809,-1.2806,-1.2806,-1.2795,-1.2795,-1.2794,-1.2792,-1.2789,-1.2788,-1.2784,-1.278,-1.2772,-1.2771,-1.2773,-1.2775,-1.2777,-1.2775,-1.2748,-1.2771,-1.2771,-1.277,-1.277,-1.277,-1.2841,-1.2843,-1.2837,-1.2835,-1.2832,-1.2829,-1.2829,-1.2823,-1.2822,-1.2819,-1.2813,-1.2812,-1.2807,-1.2801,-1.2798,-1.2797,-1.2793,-1.2795,-1.2795,-1.2796,-1.2797,-1.2778,-1.2797,-1.2797,-1.2797,-1.2797,-1.2797,0,-1.2864,-1.2859,-1.2858,-1.2853,-1.2852,-1.2844,-1.284,-1.284,-1.2839,-1.2835,-1.2833,-1.2831,-1.2829,-1.2822,-1.2819,-1.282,-1.2816,-1.2819,-1.2819,-1.2818,-1.2802,-1.28,-1.2822,-1.2822,-1.2822,-1.2822,-1.2822,-1.2822,-1.2876,-1.2878,-1.2873,-1.2873,-1.2869,-1.2868,-1.2866,-1.2863,-1.2859,-1.2858,-1.2856,-1.2851,-1.2845,-1.2841,-1.2839,-1.2837,-1.2836,-1.284,-1.2837,-1.2822,-1.2819,-1.2817,-1.2816,-1.284,-1.284,-1.2853,-1.2853,-1.2853]},{"header":{"parameterUnit":"m.s-1","parameterCategory":1,"la1":30.2991,"la2":30.254,"lo1":-89.0895,"lo2":-89.0444,"dy":0.0017,"dx":0.0017,"nx":28,"ny":28,"refTime":"2023-10-12T03:00:00:Z","depth":0,"parameterNumber":3,"parameterNumberName":"V-component_of_WINDS"},"data":[0,0,0,0,0,0,0,0,0,0,0,0,0,0,0,0,0,0,0,0,0,0,0,0,0,0,0,0,0,0,0,0,0,0,0,0,0,0,0,0,0,0,0,0,0,0,0,0,0,0,0,0,0,0,0,0,0,0,-4.838,-4.8381,0,-4.8442,-4.8443,-4.8444,-4.8424,-4.8423,-4.8421,-4.842,-4.8479,-4.8481,-4.8484,0,0,0,0,0,0,0,0,0,0,0,0,0,-4.8239,-4.8242,-4.838,-4.8381,-4.8381,-4.8442,-4.8443,-4.8444,-4.8424,-4.8423,-4.8421,-4.842,-4.8478,-4.8481,-4.8484,0,0,0,0,0,0,0,0,0,0,0,0,0,-4.8301,-4.8243,-4.838,-4.8379,-4.838,-4.8442,-4.8443,-4.8444,-4.8425,-4.8423,-4.8421,-4.8419,-4.8477,-4.8481,-4.8485,-4.855,0,0,-4.8497,-4.8499,0,0,0,0,0,0,0,0,-4.8297,-4.8306,-4.8378,-4.8379,-4.838,-4.8423,-4.8415,-4.8479,-4.8425,-4.8407,-4.842,-4.8418,-4.8461,-4.8467,-4.8483,-4.8552,-4.8555,-4.8498,-4.85,-4.8502,-4.8503,0,0,0,0,0,0,0,-4.8293,-4.8303,-4.8404,-4.8379,-4.838,-4.8374,-4.8381,-4.8427,-4.8444,-4.8409,-4.8407,-4.8415,-4.8461,-4.8479,-4.8484,-4.8556,-4.8498,-4.8501,-4.8504,-4.8506,-4.8682,-4.8684,0,0,0,0,0,0,-4.8289,-4.83,-4.8402,-4.8406,-4.8333,-4.8378,-4.8386,-4.8411,-4.8444,-4.8447,-4.8417,-4.8414,-4.8472,-4.8479,-4.8486,-4.8564,-4.8502,-4.8506,-4.8508,-4.868,-4.8683,-4.8685,0,0,0,0,0,0,-4.8286,-4.8298,-4.84,-4.8353,-4.8365,-4.8383,-4.8412,-4.8414,-4.8431,-4.845,-4.8453,-4.8432,-4.8471,-4.848,-4.8534,-4.8566,-4.8508,-4.8512,-4.8677,-4.8681,-4.8684,-4.8721,0,0,0,0,0,0,-4.8282,-4.8298,-4.8323,-4.8354,-4.8368,-4.8449,-4.8414,-4.8416,-4.8439,-4.8436,-4.8465,-4.8467,-4.847,-4.8528,-4.8538,-4.857,-4.8515,-4.8674,-4.8679,-4.8683,-4.8717,-4.8725,-4.8732,0,0,0,0,0,-4.8277,-4.833,-4.8325,-4.8337,-4.8401,-4.8451,-4.8459,-4.8462,-4.8441,-4.8467,-4.8479,-4.8467,-4.8561,-4.8534,-4.8545,-4.8579,-4.8672,-4.8678,-4.8682,-4.8714,-4.8724,-4.8732,0,0,0,0,0,0,-4.8301,-4.8334,-4.8328,-4.8393,-4.8419,-4.8447,-4.8479,-4.8473,-4.8504,-4.85,-4.8501,-4.8508,-4.8564,-4.8577,-4.8546,-4.8644,-4.8613,-4.8621,-4.8633,-4.8643,-4.865,-4.8646,-4.8518,0,0,0,0,0,-4.8314,-4.8353,-4.8379,-4.8434,-4.8447,-4.8461,-4.8483,-4.8484,-4.8511,-4.8521,-4.8538,-4.8563,-4.8598,-4.8621,-4.8655,-4.8719,-4.8725,-4.8748,-4.8755,-4.8761,-4.8768,-4.8803,-4.8813,-4.8701,-4.8701,-4.8701,0,0,-4.834,-4.8363,-4.8388,-4.8439,-4.846,-4.8499,-4.8471,-4.8513,-4.8542,-4.8527,-4.858,-4.8593,-4.8621,-4.8681,-4.8708,-4.8693,-4.88,-4.8768,-4.8773,-4.8775,-4.8809,-4.8819,-4.8829,-4.8704,-4.8704,-4.8703,0,0,-4.8409,-4.8431,-4.8479,-4.85,-4.8533,-4.8542,-4.8554,-4.8583,-4.8592,-4.8646,-4.8635,-4.8669,-4.873,-4.875,-4.8769,-4.8847,-4.8836,-4.8858,-4.8897,-4.8931,-4.894,-4.8948,-4.8975,-4.8985,-4.8864,-4.8864,-4.8864,0,-4.8437,-4.8498,-4.8503,-4.8548,-4.857,-4.8561,-4.8609,-4.8629,-4.867,-4.8685,-4.8669,-4.8746,-4.8764,-4.8828,-4.8848,-4.8863,-4.8875,-4.8854,-4.8938,-4.8946,-4.8954,-4.898,-4.899,-4.8866,-4.8866,-4.8866,-4.8866,0,-4.8531,-4.8573,-4.8608,-4.865,-4.8677,-4.8723,-4.8734,-4.876,-4.8759,-4.8769,-4.8824,-4.8846,-4.8884,-4.8899,-4.8897,-4.8964,-4.8954,-4.8938,-4.8907,-4.8967,-4.8991,-4.9001,-4.887,-4.8869,-4.8868,-4.8868,0,0,-4.8615,-4.8661,-4.8674,-4.8693,-4.8729,-4.8761,-4.8806,-4.8846,-4.8868,-4.8896,-4.8934,-4.8986,-4.8972,-4.8993,-4.8994,-4.9024,-4.9084,-4.9004,-4.9005,-4.9018,-4.9158,-4.917,-4.9182,-4.9078,-4.908,-4.9081,-4.9156,0,-4.8686,-4.8768,-4.8775,-4.8848,-4.8887,-4.8879,-4.8918,-4.8943,-4.8955,-4.8988,-4.9,-4.9037,-4.9016,-4.9029,-4.9058,-4.9071,-4.9112,-4.9066,-4.9111,-4.9113,-4.9104,-4.9195,-4.9207,-4.9276,-4.9166,-4.9167,-4.9169,0,-4.878,-4.8815,-4.8892,-4.8924,-4.894,-4.8975,-4.9012,-4.9045,-4.9073,-4.9079,-4.9104,-4.9101,-4.9146,-4.9115,-4.9176,-4.9145,-4.9164,-4.9173,-4.9175,-4.9179,-4.9144,-4.92,-4.9298,-4.9308,-4.9184,-4.9183,-4.9182,0,-4.8834,-4.8899,-4.8954,-4.8971,-4.9009,-4.9034,-4.905,-4.9077,-4.9101,-4.9132,-4.9148,-4.9183,-4.9203,-4.923,-4.9236,-4.9213,-4.9298,-4.9267,-4.9303,-4.9303,-4.9321,-4.9319,-4.9422,-4.9334,-4.9334,-4.9334,-4.9333,0,-4.8912,-4.896,-4.8978,-4.9012,-4.9065,-4.9072,-4.9124,-4.9138,-4.9163,-4.9198,-4.9193,-4.9226,-4.9232,-4.9266,-4.9271,-4.9322,-4.933,-4.9335,-4.9336,-4.9336,-4.9335,-4.9348,-4.9343,-4.9336,-4.9336,-4.9335,-4.9335,0,-4.898,-4.8995,-4.9054,-4.9086,-4.9095,-4.9133,-4.916,-4.9191,-4.9203,-4.9247,-4.9258,-4.9275,-4.9315,-4.9325,-4.9371,-4.9375,-4.9434,-4.943,-4.9425,-4.9425,-4.946,-4.9457,-4.9574,-4.959,-4.9492,-4.9493,-4.9494,0,-4.9029,-4.9066,-4.9103,-4.9128,-4.9146,-4.9185,-4.921,-4.9218,-4.9244,-4.928,-4.9307,-4.9347,-4.9379,-4.9443,-4.9458,-4.9494,-4.9491,-4.953,-4.9496,-4.9495,-4.9491,-4.9488,-4.9492,-4.9536,-4.9537,-4.9538,-4.9538,0,-4.9115,-4.9121,-4.9158,-4.9198,-4.9228,-4.9259,-4.9288,-4.9308,-4.932,-4.9349,-4.9391,-4.9417,-4.9466,-4.9505,-4.9541,-4.9556,-4.9549,-4.9549,-4.9559,-4.9559,-4.9554,-4.9557,-4.9442,-4.9546,-4.9545,-4.9545,-4.9544,-4.9544,-4.9175,-4.9207,-4.9239,-4.928,-4.9304,-4.9332,-4.9364,-4.9381,-4.9416,-4.9458,-4.9461,-4.9506,-4.9534,-4.9582,-4.96,-4.9634,-4.9622,-4.9637,-4.9641,-4.9644,-4.9647,-4.955,-4.9641,-4.9641,-4.9641,-4.964,-4.964,0,-4.926,-4.928,-4.9319,-4.9362,-4.9394,-4.9387,-4.942,-4.9447,-4.9488,-4.9515,-4.9548,-4.9596,-4.9634,-4.9653,-4.9691,-4.9715,-4.9713,-4.9725,-4.9722,-4.9726,-4.9656,-4.9643,-4.9726,-4.9726,-4.9726,-4.9726,-4.9726,-4.9726,-4.9308,-4.9363,-4.9373,-4.944,-4.9459,-4.9506,-4.9525,-4.955,-4.9573,-4.9627,-4.966,-4.9673,-4.9697,-4.9737,-4.9771,-4.9776,-4.9789,-4.9803,-4.9806,-4.974,-4.9731,-4.9723,-4.9711,-4.9806,-4.9806,-4.9873,-4.9874,-4.9874]}]]